Date,TemperatureHighF,TemperatureAvgF,TemperatureLowF,DewpointHighF,DewpointAvgF,DewpointLowF,HumidityHigh,HumidityAvg,HumidityLow,PressureMaxIn,PressureMinIn,WindSpeedMaxMPH,WindSpeedAvgMPH,GustSpeedMaxMPH,PrecipitationSumIn
2013-8-1,77.1,63.3,53.7,66.0,60.3,53.0,97,91,59,30.02,29.81,5,1,9,0.02
2013-8-2,78.4,68.4,58.0,64.0,60.7,55.0,98,79,45,29.83,29.77,6,1,11,0.00
2013-8-3,77.2,65.0,55.6,62.0,57.3,54.0,97,78,50,29.84,29.77,10,1,13,0.30
2013-8-4,70.4,60.6,53.5,62.0,56.8,52.0,97,88,65,29.93,29.80,3,0,6,0.34
2013-8-5,70.8,58.3,47.8,53.0,49.2,44.0,98,76,41,30.05,29.93,3,0,10,0.01
2013-8-6,75.1,59.9,45.6,60.0,51.8,45.0,96,77,49,30.12,30.05,3,0,7,0.00
2013-8-7,77.1,66.8,53.6,62.0,58.3,52.0,96,76,54,30.13,30.01,5,1,9,0.00
2013-8-8,83.0,73.1,66.9,72.0,66.7,61.0,92,81,64,30.00,29.92,3,1,8,0.00
2013-8-9,74.3,71.0,69.2,72.0,70.0,68.0,97,96,92,29.93,29.74,1,0,4,1.66
2013-8-10,75.7,67.0,53.3,69.0,56.9,49.0,97,73,41,30.02,29.78,5,1,14,0.00
2013-8-11,75.8,60.2,47.5,59.0,53.3,47.0,97,80,51,30.09,29.98,3,0,8,0.00
2013-8-12,76.7,64.4,51.0,65.0,57.6,50.0,97,81,53,30.02,29.89,4,0,9,0.00
2013-8-13,66.3,62.4,57.1,65.0,61.3,56.0,98,96,93,29.89,29.67,2,0,4,0.50
2013-8-14,69.2,58.6,50.8,63.0,54.7,50.0,98,87,67,29.97,29.69,3,0,12,0.05
2013-8-15,71.7,57.0,44.2,56.0,50.8,43.0,97,82,53,30.10,29.97,4,0,10,0.00
2013-8-16,75.1,60.9,47.7,61.0,54.1,47.0,97,81,53,30.20,30.09,5,0,8,0.00
2013-8-17,76.5,62.1,48.5,62.0,55.6,48.0,97,82,53,30.29,30.20,2,0,6,0.00
2013-8-18,75.0,63.2,52.9,64.0,58.2,52.0,97,85,61,30.27,30.08,2,0,4,0.00
2013-8-19,79.9,65.5,52.9,66.0,59.7,52.0,97,83,55,30.08,29.95,5,0,8,0.00
2013-8-20,81.9,67.3,53.7,67.0,60.9,53.0,97,82,55,30.10,30.00,3,0,8,0.00
2013-8-21,83.0,69.1,55.7,68.0,62.4,55.0,97,81,52,30.15,29.99,3,0,8,0.00
2013-8-22,83.7,70.0,58.3,68.0,63.9,57.0,97,83,57,30.01,29.78,4,0,9,0.13
2013-8-23,71.2,63.0,50.6,65.0,57.0,49.0,98,82,48,30.17,29.86,7,1,11,0.00
2013-8-24,75.8,58.6,43.6,60.0,51.0,43.0,97,79,47,30.34,30.17,3,0,6,0.00
2013-8-25,77.1,61.4,45.2,63.0,54.2,44.0,97,80,49,30.38,30.13,4,0,9,0.00
2013-8-26,73.7,67.4,61.6,69.0,64.3,60.0,97,90,79,30.15,29.87,3,0,5,0.11
2013-8-27,80.0,70.6,64.0,72.0,67.7,63.0,97,90,69,29.90,29.83,2,0,5,0.00
2013-8-28,84.9,70.4,60.4,72.0,65.5,60.0,98,86,61,29.93,29.81,4,0,6,0.07
2013-8-29,78.2,68.4,59.4,65.0,62.9,59.0,97,83,60,30.03,29.93,4,0,6,0.00
2013-8-30,82.7,71.0,62.2,71.0,65.5,61.0,96,83,62,29.99,29.77,3,0,7,0.00
2013-8-31,75.4,70.2,66.9,73.0,68.9,66.0,97,95,91,29.78,29.71,2,0,4,0.53